This is the latest recevied weather packets stored in our database for station/object JE7UPL-13. If no packets are shown the sender has not sent any weather packets the latest 10 day(s).
| Time | Temp. | Humidity | Pressure | Rain* | Wind** | Luminosity | Snow |
|---|---|---|---|---|---|---|---|
| 1777644905 | 12.22° C | 96% | 985.5 hPa | 0 mm | - | - | - |
| 1777644006 | 12.22° C | 96% | 985.7 hPa | 0 mm | - | - | - |
| 1777643105 | 12.22° C | 96% | 985.8 hPa | 0 mm | - | - | - |
| 1777642205 | 12.22° C | 96% | 985.7 hPa | 0 mm | - | - | - |
| 1777641305 | 12.22° C | 95% | 986.1 hPa | 0 mm | - | - | - |
| 1777640405 | 12.22° C | 95% | 986.2 hPa | 0 mm | - | - | - |
| 1777639505 | 12.22° C | 95% | 986.3 hPa | 0 mm | - | - | - |
| 1777638606 | 12.22° C | 95% | 986.6 hPa | 0 mm | - | - | - |
| 1777637705 | 12.78° C | 94% | 987 hPa | 0 mm | - | - | - |
| 1777636806 | 12.78° C | 93% | 987.4 hPa | 0 mm | - | - | - |
| 1777635905 | 12.78° C | 92% | 987.2 hPa | 0 mm | - | - | - |
| 1777635005 | 12.78° C | 93% | 987.5 hPa | 0 mm | - | - | - |
| 1777634105 | 13.89° C | 94% | 987.9 hPa | 0 mm | - | - | - |
| 1777633205 | 13.33° C | 94% | 987.3 hPa | 0 mm | - | - | - |
| 1777632305 | 13.33° C | 94% | 987.6 hPa | 0 mm | - | - | - |
| 1777631406 | 13.33° C | 94% | 988.6 hPa | 0 mm | - | - | - |
| 1777630505 | 12.78° C | 93% | 989 hPa | 0 mm | - | - | - |
| 1777629606 | 12.78° C | 92% | 989.3 hPa | 0 mm | - | - | - |
| 1777628705 | 12.78° C | 92% | 989.9 hPa | 0 mm | - | - | - |
| 1777627806 | 12.78° C | 91% | 990.2 hPa | 0 mm | - | - | - |
| 1777626906 | 12.78° C | 90% | 990.6 hPa | 0 mm | - | - | - |
| 1777626005 | 13.33° C | 89% | 990.8 hPa | 0 mm | - | - | - |
| 1777625105 | 13.89° C | 87% | 991.4 hPa | 0 mm | - | - | - |
| 1777624206 | 13.89° C | 88% | 991.7 hPa | 0 mm | - | - | - |
| 1777623306 | 13.89° C | 88% | 992 hPa | 0 mm | - | - | - |
* Rain latest hour (hover to see other rain measurements)
** Current wind speed in m/s (hover to see current wind gust speed)